ALA7433 KMIA-KMCO

Flight info

Callsign ALA7433
Flight time 0h 44m
Altitude 22000
Route FLMGO2 WAPOM MUNGI1
Aircraft B738/M-SDE2E3FGHIRWXY/LB1

Departure

Time 2026-04-26 14:42
Airport Miami International Airport (KMIA)

Arrival

Time 2026-04-26 15:26
Airport Orlando International Airport (KMCO)
Time Latitude Longitude Altitude Speed Heading
2026-04-26 14:31 25.79155 -80.29279 22 ft 0 kts 207°
2026-04-26 14:37 25.79158 -80.29278 22 ft 0 kts 207°
2026-04-26 14:37 25.79160 -80.29276 20 ft 2 kts 207°
2026-04-26 14:37 25.79184 -80.29259 23 ft 0 kts 254°
2026-04-26 14:38 25.79181 -80.29269 22 ft 3 kts 252°
2026-04-26 14:38 25.79174 -80.29291 23 ft 6 kts 251°
2026-04-26 14:39 25.79241 -80.29322 19 ft 15 kts 13°
2026-04-26 14:39 25.79305 -80.29360 20 ft 10 kts 300°
2026-04-26 14:39 25.79339 -80.29426 22 ft 10 kts 300°
2026-04-26 14:39 25.79376 -80.29499 23 ft 12 kts 300°
2026-04-26 14:40 25.79427 -80.29596 22 ft 17 kts 302°
2026-04-26 14:40 25.79538 -80.29683 22 ft 25 kts 328°
2026-04-26 14:40 25.79680 -80.29783 18 ft 21 kts 328°
2026-04-26 14:40 25.79796 -80.29867 17 ft 3 kts 323°
2026-04-26 14:41 25.79804 -80.29875 18 ft 4 kts 323°
2026-04-26 14:41 25.79856 -80.29918 17 ft 12 kts 323°
2026-04-26 14:41 25.79918 -80.29981 16 ft 12 kts 312°
2026-04-26 14:41 25.79982 -80.30057 16 ft 14 kts 317°
2026-04-26 14:42 25.80086 -80.30012 15 ft 35 kts 78°
2026-04-26 14:42 25.80103 -80.29389 20 ft 125 kts 88°
2026-04-26 14:42 25.80144 -80.28137 84 ft 195 kts 90°
2026-04-26 14:42 25.80175 -80.26553 955 ft 206 kts 90°
2026-04-26 14:43 25.80185 -80.24979 2147 ft 201 kts 92°
2026-04-26 14:43 25.80187 -80.23448 3480 ft 196 kts 90°
2026-04-26 14:43 25.80185 -80.21918 4474 ft 202 kts 92°
2026-04-26 14:43 25.80097 -80.20321 5020 ft 213 kts 96°
2026-04-26 14:44 25.80341 -80.18672 5500 ft 226 kts 64°
2026-04-26 14:44 25.81266 -80.17263 6181 ft 226 kts 45°
2026-04-26 14:44 25.82489 -80.16182 6885 ft 222 kts 30°
2026-04-26 14:44 25.83891 -80.15521 7565 ft 221 kts
2026-04-26 14:45 25.85464 -80.15172 7899 ft 243 kts
2026-04-26 14:45 25.86623 -80.15099 8032 ft 261 kts 354°
2026-04-26 14:45 25.89183 -80.15278 8655 ft 284 kts 354°
2026-04-26 14:45 25.91080 -80.15858 9487 ft 284 kts 332°
2026-04-26 14:46 25.92871 -80.16770 10384 ft 286 kts 336°
2026-04-26 14:46 25.94804 -80.17574 10731 ft 308 kts 339°
2026-04-26 14:46 25.96923 -80.18357 10917 ft 333 kts 343°
2026-04-26 14:46 25.99163 -80.19268 11131 ft 352 kts 327°
2026-04-26 14:47 26.01035 -80.21035 11731 ft 356 kts 316°
2026-04-26 14:47 26.02845 -80.22925 12484 ft 358 kts 317°
2026-04-26 14:47 26.04689 -80.24799 13252 ft 360 kts 317°
2026-04-26 14:47 26.06555 -80.26668 13976 ft 362 kts 318°
2026-04-26 14:48 26.08438 -80.28543 14571 ft 365 kts 318°
2026-04-26 14:48 26.10344 -80.30437 15145 ft 369 kts 318°
2026-04-26 14:48 26.12272 -80.32352 15728 ft 373 kts 318°
2026-04-26 14:48 26.14189 -80.34257 16296 ft 376 kts 318°
2026-04-26 14:49 26.16148 -80.36206 16854 ft 380 kts 318°
2026-04-26 14:49 26.18128 -80.38176 17433 ft 383 kts 318°
2026-04-26 14:49 26.20121 -80.40161 17952 ft 386 kts 318°
2026-04-26 14:49 26.22144 -80.42168 17987 ft 395 kts 319°
2026-04-26 14:50 26.24462 -80.43860 18002 ft 404 kts 334°
2026-04-26 14:50 26.27024 -80.45155 17999 ft 404 kts 334°
2026-04-26 14:50 26.29570 -80.46457 18002 ft 402 kts 334°
2026-04-26 14:50 26.32099 -80.47774 17998 ft 401 kts 333°
2026-04-26 14:51 26.34619 -80.49103 17991 ft 401 kts 333°
2026-04-26 14:51 26.37140 -80.50441 17994 ft 401 kts 333°
2026-04-26 14:51 26.39656 -80.51781 17999 ft 401 kts 333°
2026-04-26 14:51 26.42175 -80.53124 17996 ft 401 kts 333°
2026-04-26 14:52 26.44698 -80.54468 17992 ft 402 kts 333°
2026-04-26 14:52 26.47221 -80.55813 17996 ft 402 kts 333°
2026-04-26 14:52 26.49787 -80.57057 17990 ft 403 kts 339°
2026-04-26 14:52 26.52465 -80.57993 18003 ft 404 kts 342°
2026-04-26 14:53 26.55181 -80.58804 18000 ft 404 kts 343°
2026-04-26 14:53 26.57907 -80.59592 18004 ft 405 kts 343°
2026-04-26 14:53 26.60628 -80.60393 17998 ft 404 kts 343°
2026-04-26 14:53 26.63342 -80.61216 17996 ft 404 kts 343°
2026-04-26 14:54 26.66051 -80.62058 17989 ft 404 kts 342°
2026-04-26 14:54 26.68757 -80.62911 17997 ft 404 kts 342°
2026-04-26 14:54 26.71454 -80.63768 17993 ft 403 kts 342°
2026-04-26 14:54 26.74155 -80.64629 17999 ft 403 kts 342°
2026-04-26 14:55 26.76852 -80.65490 17994 ft 403 kts 342°
2026-04-26 14:55 26.79550 -80.66351 17995 ft 403 kts 342°
2026-04-26 14:55 26.82241 -80.67210 17997 ft 403 kts 342°
2026-04-26 14:55 26.84943 -80.68072 17994 ft 403 kts 342°
2026-04-26 14:56 26.87642 -80.68933 18006 ft 403 kts 342°
2026-04-26 14:56 26.90344 -80.69796 18000 ft 404 kts 342°
2026-04-26 14:56 26.93034 -80.70689 17998 ft 403 kts 340°
2026-04-26 14:56 26.95701 -80.71677 17998 ft 403 kts 339°
2026-04-26 14:57 26.98319 -80.72688 18001 ft 404 kts 339°
2026-04-26 14:57 27.00966 -80.73717 17996 ft 404 kts 339°
2026-04-26 14:57 27.03622 -80.74743 17995 ft 404 kts 339°
2026-04-26 14:57 27.06278 -80.75760 17994 ft 404 kts 339°
2026-04-26 14:58 27.08941 -80.76774 17991 ft 404 kts 339°
2026-04-26 14:58 27.11605 -80.77785 17993 ft 404 kts 339°
2026-04-26 14:58 27.13404 -80.78466 17993 ft 404 kts 339°
2026-04-26 14:58 27.16069 -80.79476 17993 ft 404 kts 339°
2026-04-26 14:59 27.18733 -80.80485 17996 ft 404 kts 339°
2026-04-26 14:59 27.21396 -80.81496 17993 ft 404 kts 339°
2026-04-26 14:59 27.24063 -80.82510 17993 ft 404 kts 339°
2026-04-26 14:59 27.25823 -80.83177 17992 ft 405 kts 339°
2026-04-26 15:00 27.29351 -80.84532 17988 ft 404 kts 339°
2026-04-26 15:00 27.32021 -80.85535 17987 ft 404 kts 340°
2026-04-26 15:00 27.34603 -80.86458 15176 ft 436 kts 341°
2026-04-26 15:00 27.37561 -80.87398 14564 ft 433 kts 343°
2026-04-26 15:01 27.40344 -80.88180 14439 ft 397 kts 344°
2026-04-26 15:01 27.42987 -80.88900 14054 ft 388 kts 344°
2026-04-26 15:01 27.45555 -80.89613 13862 ft 373 kts 344°
2026-04-26 15:01 27.48038 -80.90319 13599 ft 362 kts 343°
2026-04-26 15:02 27.50440 -80.91015 13327 ft 352 kts 343°
2026-04-26 15:02 27.52783 -80.91707 13060 ft 344 kts 342°
2026-04-26 15:02 27.55067 -80.92446 12797 ft 339 kts 341°
2026-04-26 15:02 27.57313 -80.93213 12549 ft 335 kts 341°
2026-04-26 15:03 27.59545 -80.93984 12304 ft 337 kts 341°
2026-04-26 15:03 27.61798 -80.94765 12057 ft 341 kts 341°
2026-04-26 15:03 27.64072 -80.95551 11816 ft 341 kts 341°
2026-04-26 15:03 27.66337 -80.96331 11567 ft 339 kts 341°
2026-04-26 15:04 27.68589 -80.97103 11318 ft 337 kts 341°
2026-04-26 15:04 27.70830 -80.97870 11083 ft 336 kts 341°
2026-04-26 15:04 27.73066 -80.98636 10843 ft 335 kts 341°
2026-04-26 15:04 27.75297 -80.99399 10613 ft 335 kts 341°
2026-04-26 15:05 27.77456 -81.00137 10385 ft 335 kts 341°
2026-04-26 15:05 27.78931 -81.00642 10231 ft 335 kts 341°
2026-04-26 15:05 27.81884 -81.01653 9916 ft 335 kts 341°
2026-04-26 15:05 27.84108 -81.02414 9668 ft 333 kts 341°
2026-04-26 15:06 27.86304 -81.03166 9395 ft 326 kts 341°
2026-04-26 15:06 27.88450 -81.03900 9147 ft 319 kts 341°
2026-04-26 15:06 27.90557 -81.04621 8884 ft 313 kts 341°
2026-04-26 15:06 27.92623 -81.05328 8614 ft 308 kts 341°
2026-04-26 15:07 27.96652 -81.06709 8126 ft 298 kts 341°
2026-04-26 15:07 27.98621 -81.07385 7870 ft 293 kts 341°
2026-04-26 15:07 28.00553 -81.08048 7628 ft 289 kts 341°
2026-04-26 15:08 28.02467 -81.08706 7392 ft 286 kts 341°
2026-04-26 15:08 28.04362 -81.09358 7149 ft 284 kts 341°
2026-04-26 15:08 28.06240 -81.10005 6908 ft 281 kts 341°
2026-04-26 15:08 28.08099 -81.10644 6673 ft 278 kts 341°
2026-04-26 15:09 28.09940 -81.11277 6441 ft 275 kts 340°
2026-04-26 15:09 28.11766 -81.11906 6200 ft 274 kts 340°
2026-04-26 15:09 28.13585 -81.12535 5957 ft 273 kts 340°
2026-04-26 15:09 28.15394 -81.13158 5695 ft 271 kts 340°
2026-04-26 15:10 28.17188 -81.13776 5443 ft 268 kts 340°
2026-04-26 15:10 28.18363 -81.14181 5274 ft 266 kts 340°
2026-04-26 15:10 28.20719 -81.14993 4980 ft 265 kts 340°
2026-04-26 15:10 28.22485 -81.15604 4715 ft 265 kts 340°
2026-04-26 15:11 28.24243 -81.16215 4466 ft 264 kts 340°
2026-04-26 15:11 28.25999 -81.16822 4226 ft 263 kts 340°
2026-04-26 15:11 28.27751 -81.17427 3988 ft 263 kts 341°
2026-04-26 15:11 28.29500 -81.18032 3711 ft 263 kts 341°
2026-04-26 15:12 28.31238 -81.18633 3480 ft 260 kts 340°
2026-04-26 15:12 28.32965 -81.19231 3228 ft 258 kts 340°
2026-04-26 15:12 28.34679 -81.19829 3067 ft 259 kts 340°
2026-04-26 15:12 28.36396 -81.20425 3030 ft 258 kts 341°
2026-04-26 15:13 28.38111 -81.21014 2984 ft 254 kts 340°
2026-04-26 15:13 28.39774 -81.21587 2973 ft 246 kts 340°
2026-04-26 15:13 28.41375 -81.22138 2989 ft 236 kts 340°
2026-04-26 15:13 28.42783 -81.22983 2985 ft 222 kts 317°
2026-04-26 15:14 28.44097 -81.23876 2955 ft 225 kts 345°
2026-04-26 15:14 28.45644 -81.23807 2987 ft 229 kts 19°
2026-04-26 15:14 28.47029 -81.22894 3027 ft 241 kts 33°
2026-04-26 15:14 28.48444 -81.21805 3024 ft 250 kts 33°
2026-04-26 15:15 28.49909 -81.20687 3014 ft 256 kts 33°
2026-04-26 15:15 28.51426 -81.19515 2986 ft 263 kts 36°
2026-04-26 15:15 28.52902 -81.18306 2984 ft 268 kts 25°
2026-04-26 15:15 28.54693 -81.17803 3002 ft 267 kts
2026-04-26 15:16 28.56549 -81.17741 3014 ft 267 kts 359°
2026-04-26 15:16 28.58398 -81.17721 2981 ft 263 kts 358°
2026-04-26 15:16 28.60223 -81.17699 2970 ft 261 kts 358°
2026-04-26 15:16 28.62028 -81.17682 2994 ft 259 kts 358°
2026-04-26 15:17 28.63843 -81.17663 2985 ft 262 kts 358°
2026-04-26 15:17 28.65075 -81.17649 2988 ft 262 kts 358°
2026-04-26 15:17 28.67490 -81.17623 2972 ft 262 kts 358°
2026-04-26 15:17 28.69308 -81.17598 2973 ft 260 kts 358°
2026-04-26 15:18 28.71108 -81.17565 2974 ft 258 kts 358°
2026-04-26 15:18 28.72900 -81.17533 2972 ft 256 kts 358°
2026-04-26 15:18 28.74658 -81.17645 2967 ft 251 kts 342°
2026-04-26 15:18 28.76140 -81.18597 2985 ft 245 kts 311°
2026-04-26 15:19 28.76969 -81.20251 2986 ft 243 kts 281°
2026-04-26 15:19 28.77035 -81.22177 3019 ft 246 kts 265°
2026-04-26 15:19 28.76886 -81.24141 2982 ft 249 kts 263°
2026-04-26 15:19 28.76689 -81.26073 2956 ft 242 kts 256°
2026-04-26 15:20 28.75936 -81.27756 2962 ft 241 kts 226°
2026-04-26 15:20 28.74529 -81.28759 2988 ft 244 kts 198°
2026-04-26 15:20 28.72827 -81.28907 3005 ft 248 kts 180°
2026-04-26 15:20 28.71105 -81.28831 2978 ft 246 kts 181°
2026-04-26 15:21 28.69381 -81.28768 2983 ft 251 kts 181°
2026-04-26 15:21 28.67633 -81.28708 2984 ft 250 kts 181°
2026-04-26 15:21 28.65946 -81.28648 2995 ft 231 kts 181°
2026-04-26 15:21 28.64421 -81.28589 2972 ft 209 kts 181°
2026-04-26 15:22 28.63013 -81.28538 2968 ft 197 kts 181°
2026-04-26 15:22 28.61670 -81.28491 2999 ft 191 kts 181°
2026-04-26 15:22 28.60342 -81.28432 2997 ft 190 kts 182°
2026-04-26 15:22 28.59017 -81.28408 2931 ft 193 kts 182°
2026-04-26 15:23 28.57674 -81.28395 2712 ft 192 kts 182°
2026-04-26 15:23 28.56380 -81.28382 2500 ft 178 kts 183°
2026-04-26 15:23 28.55163 -81.28369 2234 ft 174 kts 183°
2026-04-26 15:23 28.53990 -81.28353 1973 ft 162 kts 182°
2026-04-26 15:24 28.52929 -81.28343 1830 ft 145 kts 183°
2026-04-26 15:24 28.51922 -81.28337 1609 ft 143 kts 183°
2026-04-26 15:24 28.50944 -81.28326 1425 ft 139 kts 181°
2026-04-26 15:24 28.49976 -81.28314 1252 ft 140 kts 182°
2026-04-26 15:25 28.49007 -81.28303 1081 ft 141 kts 183°
2026-04-26 15:25 28.48345 -81.28297 934 ft 140 kts 181°
2026-04-26 15:25 28.47046 -81.28283 703 ft 143 kts 182°
2026-04-26 15:25 28.46043 -81.28272 528 ft 144 kts 183°
2026-04-26 15:26 28.45056 -81.28251 293 ft 138 kts 185°
2026-04-26 15:26 28.44104 -81.28252 116 ft 135 kts 184°
2026-04-26 15:26 28.43193 -81.28248 100 ft 106 kts 179°
2026-04-26 15:26 28.42683 -81.28242 104 ft 38 kts 179°
2026-04-26 15:27 28.42548 -81.28306 107 ft 5 kts 228°
2026-04-26 15:27 28.42547 -81.28308 107 ft 0 kts 229°
2026-04-26 15:28 28.42546 -81.28309 107 ft 2 kts 229°
2026-04-26 15:28 28.42521 -81.28366 106 ft 10 kts 249°
2026-04-26 15:28 28.42495 -81.28445 105 ft 11 kts 251°
2026-04-26 15:29 28.42472 -81.28524 104 ft 10 kts 251°
2026-04-26 15:29 28.42449 -81.28600 105 ft 10 kts 251°
2026-04-26 15:29 28.42403 -81.28748 105 ft 10 kts 250°
2026-04-26 15:30 28.42358 -81.28895 107 ft 10 kts 251°
2026-04-26 15:30 28.42336 -81.28965 107 ft 9 kts 251°
2026-04-26 15:30 28.42316 -81.29034 107 ft 9 kts 251°
2026-04-26 15:31 28.42297 -81.29103 106 ft 9 kts 259°
2026-04-26 15:31 28.42287 -81.29244 105 ft 10 kts 269°